Flag for U.S.A. Weather past 2 weeks in Freehold, New Jersey, U.S.A.

Now
45 °F

Clear.


Feels Like: 39 °F
Forecast: 41 / 55 °F
Wind: 12 mph from East

Location: Belmar-Farmdale


UV Index: 5 (Moderate)

Visibility: 10 mi


Pressure: 30.43 "Hg

Humidity: 57%

Dew point: 30 °F

Location of FreeholdLocation

Historic Weather in Freehold

°F

Freehold temperature yesterday

Maximum temperature yesterday: 66 °F (at 2:15 PM)
Minimum temperature yesterday: 36 °F (at 4:35 AM)
Average temperature yesterday: 51 °F

Past Weeks' High & Low Weather Summary

 TemperatureHumidityPressure
High81 °F (Apr 13, 1:15 PM)94% (Apr 8, 8:35 AM)30.73 "Hg (Apr 8, 8:35 AM)
Low30 °F (Apr 16, 5:15 AM)21% (Apr 19, 2:15 PM)29.44 "Hg (Apr 8, 9:35 AM)
Average51 °F56%30.09 "Hg
* Reported Apr 5 5:15 AM — Apr 20 5:55 AM, Freehold, Weather by CustomWeather, © 2014

Note: Actual official high and low records may vary slightly from our data, if they occured in-between our weather recording intervals... More about our weather records

Advertising

Historic Weather Conditions — Data for Previous 24 hours

 ConditionsComfort  
Time TempWeatherWind HumidityBarometerVisibility
5:55 AM
Apr 20
46 °FClear.13 mph57%30.42 "Hg10 mi
5:35 AM46 °FClear.12 mph53%30.41 "Hg10 mi
5:15 AM46 °FClear.15 mph62%30.41 "Hg10 mi
4:55 AM46 °FClear.13 mph66%30.40 "Hg10 mi
4:35 AM46 °FClear.14 mph66%30.39 "Hg10 mi
4:15 AM46 °FClear.14 mph66%30.39 "Hg10 mi
3:55 AM48 °FClear.12 mph58%30.37 "Hg10 mi
3:35 AM48 °FClear.13 mph50%30.36 "Hg10 mi
3:15 AM50 °FClear.12 mph43%30.36 "Hg10 mi
2:55 AM48 °FClear.8 mph43%30.36 "Hg10 mi
2:35 AM48 °FClear.8 mph43%30.36 "Hg10 mi
2:15 AM48 °FClear.6 mph43%30.35 "Hg10 mi
1:55 AM50 °FClear.7 mph40%30.35 "Hg10 mi
1:35 AM50 °FClear.7 mph40%30.35 "Hg10 mi
1:15 AM50 °FClear.7 mph40%30.35 "Hg10 mi
12:55 AM52 °FClear.8 mph41%30.35 "Hg10 mi
12:35 AM50 °FClear.8 mph43%30.34 "Hg10 mi
12:15 AM48 °FClear.8 mph50%30.34 "Hg10 mi
11:55 PM
Apr 19
46 °FClear.5 mph57%30.33 "Hg10 mi
11:35 PM48 °FClear.7 mph54%30.33 "Hg10 mi
11:15 PM48 °FClear.6 mph54%30.33 "Hg10 mi
10:55 PM48 °FClear.3 mph54%30.32 "Hg10 mi
10:35 PM48 °FClear.No wind54%30.32 "Hg10 mi
10:15 PM50 °FClear.No wind54%30.31 "Hg10 mi
9:55 PM52 °FClear.No wind50%30.31 "Hg10 mi
9:35 PM52 °FClear.No wind47%30.30 "Hg10 mi
9:15 PM52 °FClear.No wind47%30.30 "Hg10 mi
8:55 PM52 °FClear.3 mph47%30.30 "Hg10 mi
8:35 PM52 °FSunny.3 mph44%30.28 "Hg10 mi
8:15 PM54 °FSunny.3 mph41%30.27 "Hg10 mi
7:55 PM54 °FSunny.5 mph41%30.27 "Hg10 mi
7:35 PM55 °FSunny.6 mph36%30.26 "Hg10 mi
7:15 PM57 °FSunny.No wind33%30.25 "Hg10 mi
6:55 PM57 °FSunny.6 mph31%30.25 "Hg10 mi
6:35 PM61 °FSunny.9 mph27%30.25 "Hg10 mi
6:15 PM63 °FSunny.7 mph25%30.24 "Hg10 mi
5:55 PM63 °FSunny.9 mph24%30.24 "Hg10 mi
5:35 PM63 °FSunny.12 mph25%30.24 "Hg10 mi
5:15 PM64 °FSunny.9 mph22%30.24 "Hg10 mi
4:55 PM64 °FSunny.6 mph24%30.23 "Hg10 mi
4:35 PM64 °FSunny.13 mph24%30.23 "Hg10 mi
4:15 PM64 °FSunny.14 mph24%30.23 "Hg10 mi
3:55 PM64 °FSunny.13 mph22%30.23 "Hg10 mi
3:35 PM64 °FSunny.12 mph22%30.23 "Hg10 mi
3:15 PM64 °FSunny.14 mph22%30.23 "Hg10 mi
2:55 PM66 °FSunny.12 mph21%30.23 "Hg10 mi
2:35 PM64 °FSunny.13 mph21%30.23 "Hg10 mi
2:15 PM66 °FSunny.14 mph21%30.23 "Hg10 mi
1:55 PM64 °FSunny.15 mph24%30.23 "Hg10 mi
1:35 PM64 °FSunny.7 mph26%30.23 "Hg10 mi
1:15 PM63 °FSunny.10 mph30%30.24 "Hg10 mi
12:55 PM63 °FSunny.14 mph27%30.24 "Hg10 mi
12:35 PM63 °FSunny.14 mph30%30.25 "Hg10 mi
12:15 PM63 °FSunny.15 mph30%30.25 "Hg10 mi
11:55 AM61 °FSunny.15 mph34%30.26 "Hg10 mi
11:35 AM61 °FSunny.13 mph36%30.27 "Hg10 mi
11:15 AM59 °FSunny.14 mph39%30.27 "Hg10 mi
10:55 AM57 °FSunny.12 mph41%30.28 "Hg10 mi
10:35 AM57 °FSunny.12 mph39%30.28 "Hg10 mi
10:15 AM55 °FSunny.10 mph44%30.28 "Hg10 mi
9:55 AM54 °FSunny.12 mph51%30.27 "Hg10 mi
9:35 AM54 °FSunny.12 mph51%30.27 "Hg10 mi
9:15 AM52 °FSunny.8 mph58%30.27 "Hg10 mi
8:55 AM48 °FSunny.7 mph62%30.27 "Hg10 mi
8:35 AM46 °FSunny.7 mph66%30.27 "Hg10 mi
8:15 AM45 °FSunny.8 mph71%30.27 "Hg10 mi
7:55 AM43 °FSunny.7 mph76%30.26 "Hg10 mi
7:35 AM39 °FSunny.6 mph81%30.26 "Hg10 mi
7:15 AM39 °FSunny.5 mph81%30.26 "Hg9 mi
Weather by CustomWeather, © 2014

See weather overview